Hourly Data Report for June 19, 2021

FISHER BRANCH (AUT)
MANITOBA
Current Station Operator: ECCC - MSC

51°05'00.100" N
97°33'16.200" W
253.00 m
50309J6
71442
WSZ

Download Data

Hourly Data (June 2021)
Hourly Data Report for June 19, 2021
TIME
LST
Temp Definition
°C
Dew Point Definition
°C
Rel Hum Definition
%
Precip. Amount Definition
mm

Wind Dir Definition
10's deg

Wind Spd Definition
km/h
Visibility Definition
km
Stn Press Definition
kPa
Hmdx Definition


Wind Chill Definition


Weather Definition


00:00 8.1 5.7 85 0.0   0   98.24     LegendNANA
01:00 7.6 6.0 90 0.0 20 6   98.20     LegendNANA
02:00 6.2 5.0 92 0.0 20 6   98.17     LegendNANA
03:00 4.7 3.6 93 0.0 19 3   98.15     LegendNANA
04:00 4.3 3.2 93 0.0 19 3   98.11     LegendNANA
05:00 4.7 3.6 92 0.0 16 2   98.10     LegendNANA
06:00 10.7 8.0 84 0.0 19 5   98.07     LegendNANA
07:00 13.1 9.5 79 0.0 23 4   98.04     LegendNANA
08:00 14.4 10.2 76 0.0 21 7   98.02     LegendNANA
09:00 15.3 7.4 59 0.0 22 6   97.97     LegendNANA
10:00 16.6 7.0 53 0.0 29 4   97.91     LegendNANA
11:00 17.3 5.1 45 0.0 34 4   97.87     LegendNANA
12:00 18.9 5.5 41 0.0 18 4   97.82     LegendNANA
13:00 18.9 7.2 46 0.0 25 6   97.75     LegendNANA
14:00 18.8 8.5 51 0.0 19 5   97.70     LegendNANA
15:00 19.8 8.8 49 0.0 19 7   97.64     LegendNANA
16:00 20.1 8.2 46 0.0 25 8   97.57     LegendNANA
17:00 20.9 9.2 47 0.0 29 12   97.51     LegendNANA
18:00 20.8 7.6 42 0.0 25 13   97.48     LegendNANA
19:00 19.9 8.8 49 0.0 27 8   97.47     LegendNANA
20:00 19.1 9.2 53 0.0 23 4   97.44     LegendNANA
21:00 18.1 9.8 58 0.0 24 6   97.43     LegendNANA
22:00 17.1 10.6 66 0.0 24 6   97.40     LegendNANA
23:00 14.9 12.8 87 1.2 26 13   97.42     LegendNANA

Notes on Data Quality.

Legend

  • E = Estimated
  • M = Missing
  • NA = Not Available*
  • [empty] = Indicates an unobserved value
Date modified: